Location: Dos Palmas
(32.4468°N, 116.8732°W)
Time: 15:11:25
(UTC+00:00)

SEEDS - Visible Passes

Search period start: 14 September 2024 00:00
Search period end: 24 September 2024 00:00
Orbit: 542 x 550 km, 97.7° (Epoch: 12 September)

Date Brightness Start Highest point End Pass type
(mag) Time Alt. Az. Time Alt. Az. Time Alt. Az.
14 Sep ? 10:43:20 10° ENE 10:45:07 13° E 10:45:08 13° E visible
14 Sep ? 12:16:15 10° N 12:19:49 33° WNW 12:20:46 29° WSW visible
15 Sep ? 10:38:32 10° E 10:39:21 11° E 10:39:21 11° E visible
15 Sep ? 12:10:29 10° N 12:14:10 39° WNW 12:14:58 35° WSW visible
16 Sep ? 12:04:40 10° N 12:08:27 47° WNW 12:09:04 43° WSW visible
17 Sep ? 11:58:48 10° N 12:02:39 57° WNW 12:03:07 53° WSW visible
18 Sep ? 11:52:53 10° N 11:56:48 70° WNW 11:57:05 67° WSW visible
19 Sep ? 11:46:55 10° N 11:50:51 85° WNW 11:50:59 82° SW visible
20 Sep ? 11:40:54 10° NNE 11:44:48 79° E 11:44:48 79° E visible
21 Sep ? 11:34:50 10° NNE 11:38:33 63° E 11:38:33 63° E visible
22 Sep ? 11:28:44 10° NNE 11:32:13 50° ENE 11:32:13 50° ENE visible
23 Sep ? 11:22:35 10° NNE 11:25:49 40° ENE 11:25:49 40° ENE visible
23 Sep ? 12:59:37 10° NW 13:00:28 11° WNW 13:01:20 10° W visible
